This demonstration page uses our WeatherBlox Daily Observations layout. Learn more.

Left ArrowRight Arrow

39.29038, -76.61219

Hourly Observations for July 23, 2021

Temp ( °F °C ) Dew Point ( °F °C ) Humidity (%) Winds ( mph kmh ) Pressure ( in mb ) Visibility ( mi km ) Precip ( " mm )
12:54 am 00:54 Mostly Cloudy 65 18.3 57 13.9 76 76 N N/A 30.14 1021 10 16 N/A
1:54 am 01:54 Partly Cloudy 65 18.3 58 14.4 78 78 N N/A 30.14 1021 10 16 N/A
2:54 am 02:54 Mostly Cloudy 66 18.9 58 14.4 75 75 N N/A 30.13 1020 10 16 N/A
3:54 am 03:54 Mostly Cloudy 64 17.8 58 14.4 81 81 N N/A 30.12 1020 10 16 N/A
4:54 am 04:54 Mostly Cloudy 64 17.8 57 13.9 78 78 WNW 3 6 30.13 1020 10 16 N/A
5:54 am 05:54 Mostly Cloudy 63 17.2 57 13.9 81 81 NW 3 6 30.14 1021 10 16 N/A
6:54 am 06:54 Mostly Cloudy 65 18.3 57 13.9 76 76 N N/A 30.16 1021 10 16 N/A
7:54 am 07:54 Mostly Cloudy 68 20 58 14.4 70 70 NW 3 6 30.17 1022 10 16 N/A
8:54 am 08:54 Mostly Cloudy 74 23.3 57 13.9 56 56 VRB 3 6 30.18 1022 10 16 N/A
9:54 am 09:54 Mostly Cloudy 77 25 52 11.1 42 42 ENE 6 9 30.18 1022 10 16 N/A
10:54 am 10:54 Mostly Cloudy 81 27.2 51 10.6 35 35 NE 8 13 30.18 1022 10 16 N/A
11:54 am 11:54 Partly Cloudy 81 27.2 50 10 34 34 VRB 6 9 30.16 1022 10 16 N/A
12:54 pm 12:54 Partly Cloudy 82 27.8 51 10.6 34 34 VRB 5 7 30.14 1021 10 16 N/A
1:54 pm 13:54 Partly Cloudy 83 28.3 50 10 32 32 N N/A 30.14 1021 10 16 N/A
2:54 pm 14:54 Partly Cloudy 86 30 48 8.9 27 27 VRB 5 7 30.12 1020 10 16 N/A
3:54 pm 15:54 Partly Cloudy 88 31.1 50 10 27 27 N N/A 30.11 1020 10 16 N/A
4:54 pm 16:54 Partly Cloudy 86 30 53 11.7 32 32 E 9 15 30.10 1019 10 16 N/A
5:54 pm 17:54 Partly Cloudy 84 28.9 53 11.7 34 34 ESE 9 15 30.09 1019 10 16 N/A
6:54 pm 18:54 Partly Cloudy 83 28.3 53 11.7 36 36 ESE 7 11 30.09 1019 10 16 N/A
7:54 pm 19:54 Mostly Sunny 80 26.7 55 12.8 42 42 S 3 6 30.09 1019 10 16 N/A
8:54 pm 20:54 Mostly Clear 77 25 55 12.8 47 47 S 5 7 30.09 1019 10 16 N/A
9:54 pm 21:54 Mostly Clear 76 24.4 55 12.8 48 48 SSW 3 6 30.11 1020 10 16 N/A
10:54 pm 22:54 Clear 70 21.1 57 13.9 64 64 N N/A 30.12 1020 10 16 N/A
11:54 pm 23:54 Clear 66 18.9 57 13.9 73 73 N N/A 30.12 1020 10 16 N/A

Powered by AerisWeather